Location: Lachepaillet
(43.4918°N, 1.4874°W)
Time: 00:07:38
(UTC+00:00)

Cosmos 2360 Rocket - Pass Details

Date: 15 May 2026
Orbit: 831 x 845 km, 71.0° (Epoch: 9 June)

Event Time Altitude Azimuth Distance (km) Brightness Sun altitude
Rises 21:45:42 0° 335° (NNW) 3,414 6.9 -20.1°
Reaches altitude 10° 21:48:10 10° 336° (NNW) 2,475 5.8 -20.3°
Maximum altitude 21:53:52 87° 64° (ENE) 852 2.1 -20.9°
Enters shadow 21:55:49 43° 153° (SSE) 1,165 2.4 -21.1°
